Back to catalog

STARLINK-36317

AliveCommunicationsSSO
NORAD 67736·PAYLOAD·🇺🇸 United States

Launched Feb 11, 2026 from Vandenberg Space Force Base

Loading…

Next Passes (next 24 hours)

TLE

FreshSource: CelesTrak SupGP

Epoch: Sep 14, 2026, 22:43 UTC

1 67736C 26026R   26257.94701389  .00009152  00000+0  28411-3 0  2570
2 67736  97.2849 309.8753 0001165  86.8992 164.3959 15.33431440    16

Track STARLINK-36317 in real time with AllMySat

Download on the App Store